STARLINK-36555, 67497

Orbit data source: Space-Track

STARLINK-36555, 67497 is a payload satellite owned by SpaceX/Seattle (US) in LEO that was launched on Sun, 18 Jan 2026 UTC via an FALCON 9 launch vehicle from the Air Force Eastern Test Range (AFETR). Payload-class satellites include a variety of spacecraft equipped with specific instruments for various scientific and technological missions. These include communications satellites like Starlink; space stations such as the ISS; scientific satellites like the Hubble; Earth observation satellites from companies like Planet Labs, Umbra, and HawkEye 360; GPS; miniature CubeSats for education and research; and military/defense satellites.

Loading next visibility...
Identifier
67497, 2026-012E
Orbit
LEO
Country
Flag of USUS
Related business
Manufacturer
SpaceX/Seattle
Mission
Operational spacecraft
Bus & Motor
STARLINK V2MO, Unknown motor
Mass
575 kg wet, ~530 kg dry
Launch date (UTC)
2026-01-18 (2 weeks ago)
Launch vehicle
FALCON 9
Launch site
Air Force Eastern Test Range (AFETR)
Object type
Payload
Rocket body
Debris
Shape & HBR
Unknown shape, 17.7 m
Radar Cross Section
RCS unknown

Expand to show TLE details & history
Last TLE update: 14 hours ago

TLE from 14 hours ago
0 STARLINK-36555
1 67497U 26012E   26034.58335648 -.01941826  00000-0 -10781-1 0  9992
2 67497  42.9964 150.5315 0001247 273.9347 154.8953 15.81653304  3585
Epoch: 2026-02-03T14:00Z
TLE epoch observation values (Epoch: 2026-02-03T14:00:01.999Z)
Latitude
39.64265°
Longitude
-131.16061°
Altitude
328.877 km
Speed
7.716 km/s
True Right ascension
14h 10m 26s
True Declination
39° 27' 47"
Sunlit
Object was in full shadow at epoch
Visualization orbit readout
Latitude
Unknown
Longitude
Unknown
Altitude
Unknown
Speed
Unknown
Apparent Right ascension
Unknown
Apparent Declination
Unknown
Sunlit
N/A
Visualization observer readout
Local Sidereal Time
05:35:28
Azimuth
Unknown
Elevation
Unknown
Doppler factor
Unknown
Orbital elements
Apogee altitude
328.592 km
Perigee altitude
326.92 km
Semi-major axis
6,705.893 km
Eccentricity
0.00012
Inclination
42.9964°
RAAN
150.5315°
Arg. of periapsis
273.9347°
True anomaly
154.90136°
Mean anomaly
154.8953°
Eccentric anomaly
154.89833°
Mean motion
3.95238 °/min
Orbital period
91.08 mins
BSTAR
-0.010781
Loading maneuver chart data...
Computing Atmospheric mass density...
Loading historical data...
Loading historical data...
Loading historical data...
Loading historical data...
Loading historical data...
Loading historical data...
Loading historical data...

Documentation

Showing up to 5 results
|